Starlink 34994

operational
NORAD ID: 65924 Int'l Des: 2025-225 Owner: SPXS Country: US Constellation: starlink
LEOCIRCULAR

About Starlink 34994

Description loading...

Live Position

Loading 3D Globe...

Upcoming Passes

Altitude History

Altitude vs Time

uPlot chart will show altitude changes over time

Two-Line Element Set

1 65924U 25225Q 26063.34938411 .00041252 00000-0 13980-2 0 9999
2 65924 53.1618 190.2574 0001320 88.4515 271.6637 15.30180511 23593
Epoch: Mar 4, 2026 • Age: 23 hours

Current Status

Altitude 481.1 km
Velocity 7.62 km/s
Sub-Earth Point -20.12°S, 130.33°W
Launch Date Oct 8, 2025
Age 0.4 years
Type internet

Technical Details

Classification Payload
Mass 575.00 kg
Dry Mass 530.00 kg
Total Mass 575.00 kg
Length 0.30 m
Diameter 4.10 m
Span 29.00 m
Shape Box + pan
Manufacturer SPXS
Bus Type Starlink V2MO
Phase Status In Orbit
Owner/State SPXS/US

Large Constellations

Loading constellations...